MOLNIYA 3-40

Last updated on Jan. 25, 2020, 4:43 a.m. UTC

1 21196U 91022A   20024.00079870 -.00000693  00000-0  00000+0 0  9990
2 21196  64.3202  66.1823 6884261 284.2484  13.2049  2.03001969211880
UTC
Height (km)
Latitude
Longitude
Inclination
Orbital Period
UTC large
Height (km)
Speed (km/s)
/
Latitude / Longitude
Inclination (degrees)
Orbital Period (minutes)
Azimuth
Elevation
Range (km)
Doppler Factor
iOS Compass Heading
iOS Angle

Next 30 passes for location: Hong Kong

Rise time Rise Azimuth (degrees) Set time Set Azimuth (degrees) Duration Max altitude (degrees)

No matching passes for this satellites